• Dodge Ram 1500 Pickup


    Emergency Glass Repair realizes the importance and safety with regard to your Dodge Ram 1500s auto glass, and it is the goal to help you quickly and cost effectively get your issue solved.
    Emergency Glass Repair works with expert, local glass professionals in your area, and they can assist you with whatever auto glass problem (chip, crack or full replacement) you have by simply filling out the free Auto Glass Repair & Replacement Quote form.

    Your Dodge Ram 1500 may need a full windshield replacement, but sometimes preventative measures can save you, the consumer, a lot of money. The auto glass experts use the latest technology to fully repair chips or cracks that tend to lead to bigger glass damage if not taken care of right away. Damage to a windshield impairs a drivers vision, and one of Emergency Glass Repair goals is to fix any safety hazard you may have with your auto glass on your Dodge Ram 1500.


    There are many models of the Dodge Ram 1500, with them consisting of the Dodge Ram 1500 Crew Cab Laramie Longhorn, the Dodge Ram 1500 Laramie, the Dodge Ram 1500 Crew Cab Sport, the Dodge Ram 1500 Crew Cab Outdoorsman, the Dodge Ram 1500 Quad Cab SLT, the Dodge Ram 1500 Regular Cab Express, the Dodge Ram 1500 Regular Cab Tradesman, and the Dodge Ram 1500 Regular Cab ST.


    Glass-wise, the models are similar, with a front windshield, rear windshield, and four power windows. The only difference is that the Express, Tradesman and ST models are two-door vehicles, making them only have two power windows.


    For any of your Dodge Ram 1500 windshield replacement, Dodge Ram 1500 windshield repair, or Dodge Ram 1500 window needs simply fill out the free Auto Glass Repair & Replacement Quote form and a trained auto-glass specialist in your area can quickly give you an estimate. The local auto glass companies offer quality glass and repair while being cost effective, but with that being said, the Auto Glass Repair & Replacement Quote form is a great means for price comparison. Its quick and easy, and designed for your convenience.
    It is the goal of Emergency Glass Repair to quickly get your Dodge Ram 1500 back on the road, with the windshield and all windows clear, not only for your safety, but for your viewing pleasure as you drive down the road.

  • RECENT QUOTES

    What you see here are REAL quotes for REAL people all over the country. Don‘t get left out, fill out your information below to get a quote.

    Vehicle Part Quote Date Location
    2003 Dodge Ram 1500 Windshield $273.85 03/20/17 Casa Grande, AZ 85122
    1996 Dodge Ram 1500 Windshield $279.73 03/19/17 Greenville, SC 29617
    2005 Dodge Ram 1500 Windshield $145.00 03/14/17 Kansas City, KS 66106
    2008 Dodge Ram 1500 Windshield $271.78 03/14/17 Carter Lake, IA 51510
    2002 Dodge Ram 1500 Windshield $273.85 03/13/17 West Henrietta, NY 14586
    2001 Dodge Ram 1500 Windshield $280.92 03/12/17 Bryant, AL 35958
    2003 Dodge Ram 1500 Windshield $273.85 03/09/17 Perham, MN 56573
    2001 Dodge Ram 1500 Windshield $280.91 03/07/17 Egan, LA 70531
    1998 Dodge Ram 1500 Windshield $279.80 02/28/17 Portal, GA 30450
    2006 Dodge Ram 1500 Back glass-heated-privacy tint-left $332.43 02/28/17 West Columbia, SC 29172
    1999 Dodge Ram 1500 Windshield $279.73 02/27/17 , 27492
    2003 Dodge Ram 1500 Driver rear door glass $256.69 02/27/17 Paris, KY 40361
    2003 Dodge Ram 1500 Windshield $273.85 02/27/17 , 13356
    2001 Dodge Ram 1500 Windshield $280.92 02/25/17 Delaware, OH 43015
    2005 Dodge Ram 1500 Windshield $150.00 02/18/17 Buena Park, CA 90621
    1998 Dodge Ram 1500 Windshield $288.13 02/17/17 Bardstown, KY 40004
    1998 Dodge Ram 1500 Windshield with Night Vision $179.00 02/17/17 Sacramento, CA 95828
    2009 Dodge Ram 1500 Windshield with Logo $404.69 02/17/17 Greensburg, PA 15601
    2010 Dodge Ram 1500 Windshield with Logo $277.83 02/15/17 San Bernardino, CA 92407
    2001 Dodge Ram 1500 Windshield $289.32 02/15/17 Sulphur, LA 70663
    2005 Dodge Ram 1500 Windshield $280.18 02/14/17 Durant, OK 74701
    2001 Dodge Ram 1500 Windshield $289.32 02/10/17 Owensboro, KY 42303
    2006 Dodge Ram 1500 Windshield $280.18 02/09/17 Somersworth, NH 03878
    1999 Dodge Ram 1500 Windshield $288.13 02/01/17 La Center, WA 98629
    2008 Dodge Ram 1500 Windshield $278.77 01/31/17 Baytown, TX 77521
    1997 Dodge Ram 1500 Windshield $288.13 01/25/17 Cape Coral, FL 33914
    2002 Dodge Ram 1500 Windshield $282.25 01/24/17 Humboldt, TN 38343
    2001 Dodge Ram 1500 Windshield $289.31 01/23/17 Norman, OK 73026
    2008 Dodge Ram 1500 Windshield with Logo $398.55 01/23/17 Woodstock, VA 22664
    1998 Dodge Ram 1500 Windshield $288.13 01/21/17 Saint Joseph, MO 64501
    2010 Dodge Ram 1500 Back glass-3 piece slider-privacy tinted $596.94 01/21/17 Lubbock, TX 79415
    1996 Dodge Ram 1500 Windshield $288.13 01/20/17 Great Cacapon, WV 25422
    1994 Dodge Ram 1500 Windshield $288.14 01/20/17 Farmington, NM 87401
    2005 Dodge Ram 1500 Windshield $280.18 01/19/17 De Berry, TX 75639
    2007 Dodge Ram 1500 Windshield $278.77 01/17/17 Colfax, CA 95713
    2002 Dodge Ram 1500 Windshield $282.25 01/17/17 Anderson, IN 46011
    2007 Dodge Ram 1500 Back glass-heated-dark privacy tint-with defrost $352.98 01/16/17 Silver Spring, MD 20901
    2003 Dodge Ram 1500 Windshield with electrochromic mirror $280.18 01/15/17 Ocean City, MD 21842
    2006 Dodge Ram 1500 Windshield $280.18 01/14/17 Ozark, MO 65721
    1998 Dodge Ram 1500 Windshield $288.13 01/13/17 Salisbury, NC 28146
    2002 Dodge Ram 1500 Windshield $282.25 01/13/17 Ocklawaha, FL 32179
    2001 Dodge Ram 1500 Windshield $289.32 01/13/17 , 44213
    2008 Dodge Ram 1500 Windshield with heads up display (HUD) $280.18 01/12/17 Dothan, AL 36301
    2000 Dodge Ram 1500 Windshield $289.31 01/11/17 Marysville, CA 95901
    1994 Dodge Ram 1500 Windshield $268.41 01/08/17 Las Vegas, NV 89110
    1996 Dodge Ram 1500 Windshield $149.00 01/03/17 Spring, TX 77382
    2010 Dodge Ram 1500 Windshield $278.30 01/01/17 Spokane, WA 99204
    1997 Dodge Ram 1500 Windshield $287.59 12/30/16 Eastpointe, MI 48021
    2004 Dodge Ram 1500 Windshield $168.60 12/28/16 Tempe, AZ 85283
    2002 Dodge Ram 1500 Windshield $280.95 12/28/16 Bakersfield, CA 93309
    2005 Dodge Ram 1500 Windshield $279.13 12/23/16 Strattanville, PA 16258
    1996 Dodge Ram 1500 Windshield $287.59 12/20/16 Glenside, PA 19038
    2002 Dodge Ram 1500 Windshield $280.95 12/20/16 Odessa, FL 33556
    2001 Dodge Ram 1500 Windshield $288.27 12/19/16 White Deer, TX 79097
    2007 Dodge Ram 1500 Windshield $279.13 12/15/16 Robstown, TX 78380
    1997 Dodge Ram 1500 Windshield $188.60 12/13/16 Mesa, AZ 85207
    2003 Dodge Ram 1500 Windshield $276.83 12/13/16 Baton Rouge, LA 70811
    2001 Dodge Ram 1500 Windshield $288.27 12/08/16 Noble, OK 73068
    2010 Dodge Ram 1500 Windshield $278.92 12/06/16 Fairhope, AL 36532
    2000 Dodge Ram 1500 Windshield $288.27 12/04/16 Sylmar, CA 91342
    1996 Dodge Ram 1500 Windshield $287.59 12/01/16 Osgood, IN 47037
    2000 Dodge Ram 1500 Windshield $288.27 12/01/16 Eldon, MO 65026
    1999 Dodge Ram 1500 Windshield $287.59 11/29/16 Tampa, FL 33610
    1997 Dodge Ram 1500 Back glass $439.97 11/27/16 Eudora, KS 66025
    1998 Dodge Ram 1500 Back glass $303.28 11/26/16 Hudson, FL 34669
    1996 Dodge Ram 1500 Windshield $287.59 11/24/16 Midlothian, TX 76065
    2004 Dodge Ram 1500 Windshield $276.83 11/24/16 Chandler, TX 75758
    2000 Dodge Ram 1500 Windshield $288.27 11/23/16 Birmingham, AL 35211
    1998 Dodge Ram 1500 Windshield $287.59 11/23/16 , 12333
    1996 Dodge Ram 1500 Windshield $287.59 11/23/16 Virginia Beach, VA 23462
    2003 Dodge Ram 1500 Windshield $276.83 11/21/16 Mulkeytown, IL 62865
    2003 Dodge Ram 1500 Windshield $178.60 11/20/16 Mesa, AZ 85208
    1999 Dodge Ram 1500 Windshield $287.55 11/14/16 Wanchese, NC 27981
    2002 Dodge Ram 1500 Windshield $289.00 11/11/16 Ferndale, MI 48220
    2007 Dodge Ram 1500 Back glass-3 piece slider-privacy tinted $695.00 11/09/16 Houston, TX 77026
    2001 Dodge Ram 1500 Windshield $303.28 11/09/16 Omaha, NE 68127
    2007 Dodge Ram 1500 Windshield $276.83 11/08/16 Justin, TX 76247
    2009 Dodge Ram 1500 Windshield $182.52 11/06/16 Cleveland, OH 44121
    2001 Dodge Ram 1500 Windshield $288.27 11/05/16 Farmington, NM 87402
    2007 Dodge Ram 1500 Windshield $189.00 10/31/16 Garrettsville, OH 44231
    2006 Dodge Ram 1500 Windshield $150.00 10/30/16 Santa Ana, CA 92704
    1998 Dodge Ram 1500 Windshield $169.00 10/27/16 Hermitage, TN 37076
    1997 Dodge Ram 1500 Windshield $286.53 10/26/16 Meadowlands, MN 55765
    2002 Dodge Ram 1500 Windshield $279.89 10/25/16 Rockmart, GA 30153
    1997 Dodge Ram 1500 Windshield $286.53 10/24/16 Covington, VA 24426
    1995 Dodge Ram 1500 Windshield $285.00 10/24/16 Deville, LA 71328
    2003 Dodge Ram 1500 Back glass-non heated-clear-no defrost $346.53 10/22/16 Everton, MO 65646
    2000 Dodge Ram 1500 Windshield $286.16 10/18/16 Houlton, ME 04730
    2007 Dodge Ram 1500 Windshield $276.00 10/16/16 Amarillo, TX 79109
    2009 Dodge Ram 1500 Back glass-passenger side $272.59 10/14/16 Honaker, VA 24260
    2002 Dodge Ram 1500 Windshield $279.89 10/13/16 Odessa, TX 79762
    1996 Dodge Ram 1500 Driver front door glass $263.91 10/12/16 Boynton Beach, FL 33435
    1999 Dodge Ram 1500 Windshield $286.53 10/12/16 Clarksburg, WV 26301
    2010 Dodge Ram 1500 Back glass-non heated-privacy tint-no defrost $346.50 10/12/16 Springtown, TX 76082
    1997 Dodge Ram 1500 Windshield $286.53 10/12/16 Columbia, SC 29203
    2008 Dodge Ram 1500 Back glass-passenger side $263.91 10/10/16 Piqua, OH 45356
    2010 Dodge Ram 1500 Windshield $277.93 10/09/16 Buffalo, SC 29321
    2009 Dodge Ram 1500 Back glass-passenger side $272.59 10/09/16 Daphne, AL 36526
    2006 Dodge Ram 1500 Windshield $278.89 10/07/16 Broken Bow, OK 74728
    2008 Dodge Ram 1500 Windshield $277.58 10/05/16 Galveston, IN 46932
    2002 Dodge Ram 1500 Windshield $279.89 10/04/16 New Richmond, WI 54017
    2005 Dodge Ram 1500 Back glass-heated-dark privacy tint-with defrost $346.45 10/02/16 Burnsville, MN 55337
    2004 Dodge Ram 1500 Truck back glass-movable-manual-privacy tint $351.00 10/02/16 Blounts Creek, NC 27814
    2009 Dodge Ram 1500 Windshield $169.00 09/28/16 Sacramento, CA 95820
    2004 Dodge Ram 1500 Windshield $277.58 09/27/16 Milford, VA 22514
    2003 Dodge Ram 1500 Windshield $277.72 09/25/16 Booneville, AR 72927
    2010 Dodge Ram 1500 Passenger front door glass $298.69 09/24/16 Lubbock, TX 79416
    1994 Dodge Ram 1500 Windshield $286.35 09/13/16 Port Richey, FL 34668
    2009 Dodge Ram 1500 Back glass-non heated-clear-no defrost $346.50 09/02/16 Roy, WA 98580
    1994 Dodge Ram 1500 Windshield $286.53 08/31/16 Westminster, SC 29693
    2003 Dodge Ram 1500 Windshield $150.00 08/27/16 Pomona, CA 91766
    1999 Dodge Ram 1500 Windshield $286.53 08/27/16 High Point, NC 27262
    1997 Dodge Ram 1500 Windshield $276.04 08/24/16 Schenectady, NY 12302
    1997 Dodge Ram 1500 Windshield $276.04 08/23/16 Gouverneur, NY 13642
    2008 Dodge Ram 1500 Windshield $267.09 08/22/16 La Center, KY 42056
    2000 Dodge Ram 1500 Windshield $271.28 08/18/16 Arroyo Grande, CA 93420
    1999 Dodge Ram 1500 Windshield $280.24 08/17/16 Trinity, NC 27370
    2004 Dodge Ram 1500 Windshield $273.60 08/17/16 Albuquerque, NM 87120
    2003 Dodge Ram 1500 Windshield $275.48 08/14/16 Columbia, MO 65202
    1998 Dodge Ram 1500 Windshield $280.24 08/05/16 Indianapolis, IN 46218
    1998 Dodge Ram 1500 Windshield $280.24 08/01/16 Killeen, TX 76542
    2000 Dodge Ram 1500 Windshield $180.00 07/31/16 San Jose, CA 95148
    1997 Dodge Ram 1500 Windshield $274.99 07/30/16 Redding, CA 96002
    2001 Dodge Ram 1500 Windshield $273.82 07/27/16 Pitman, NJ 08071
    2003 Dodge Ram 1500 Windshield $271.43 07/24/16 Fort Pierce, FL 34950
    1998 Dodge Ram 1500 Windshield $280.24 07/23/16 Moorcroft, WY 82721
    2001 Dodge Ram 1500 Windshield $183.60 07/23/16 Peoria, AZ 85381
    2005 Dodge Ram 1500 Windshield $273.60 07/23/16 Haysi, VA 24256
    1997 Dodge Ram 1500 Windshield $280.24 07/22/16 Viola, WI 54664
    2002 Dodge Ram 1500 Windshield $273.60 07/22/16 San Angelo, TX 76901
    2002 Dodge Ram 1500 Back glass-3 piece slider-privacy tinted $531.98 07/19/16 Albuquerque, NM 87108
    2005 Dodge Ram 1500 Windshield $271.43 07/18/16 Billings, MT 59105
    1995 Dodge Ram 1500 Windshield $284.43 07/14/16 Berea, KY 40403
    1999 Dodge Ram 1500 Windshield $274.99 07/14/16 Ellisville, MS 39437
    1995 Dodge Ram 1500 Windshield $280.24 07/11/16 Lakeland, FL 33811
    1997 Dodge Ram 1500 Windshield $280.24 07/11/16 Corning, CA 96021
    2002 Dodge Ram 1500 Windshield $273.59 07/10/16 Silverdale, PA 18962
    2007 Dodge Ram 1500 Windshield $275.48 07/05/16 Killeen, TX 76542
    2003 Dodge Ram 1500 Windshield $275.48 07/04/16 Ozark, AL 36360
    1997 Dodge Ram 1500 Driver front door glass $265.69 07/03/16 New Iberia, LA 70563
    2001 Dodge Ram 1500 Windshield $300.13 06/26/16 Abilene, TX 79605
    2005 Dodge Ram 1500 Windshield $275.48 06/26/16 Yoakum, TX 77995
    2006 Dodge Ram 1500 Back glass-3 piece slider-clear $547.03 06/26/16 White Pine, TN 37890
    1996 Dodge Ram 1500 Windshield $180.00 06/25/16 Richmond, VA 23226
    1998 Dodge Ram 1500 Windshield $283.38 06/23/16 Des Moines, IA 50313
    1998 Dodge Ram 1500 Windshield $283.37 06/21/16 Chico, TX 76431
    1995 Dodge Ram 1500 Windshield $188.60 06/20/16 Peoria, AZ 85345
    2004 Dodge Ram 1500 Windshield $274.43 06/20/16 Gastonia, NC 28052
    2001 Dodge Ram 1500 Windshield $284.32 06/13/16 Warrenton, MO 63383
    2001 Dodge Ram 1500 Windshield $288.32 06/13/16 Albany, NY 12210
    2007 Dodge Ram 1500 Back glass-drivers side $285.00 06/12/16 Gretna, LA 70056
    2004 Dodge Ram 1500 Windshield $278.84 06/08/16 Mansfield, TX 76063
    1995 Dodge Ram 1500 Windshield $140.00 06/08/16 Norman, OK 73071
    1996 Dodge Ram 1500 Windshield $285.48 06/06/16 Fitchburg, MA 01420
    1998 Dodge Ram 1500 Windshield $285.48 06/06/16 San Antonio, TX 78253
    2002 Dodge Ram 1500 Windshield $278.84 06/04/16 Hartsville, SC 29550
    1999 Dodge Ram 1500 Windshield $285.58 06/04/16 Sun City, CA 92587
    2006 Dodge Ram 1500 Windshield $273.60 06/01/16 Deridder, LA 70634
    2001 Dodge Ram 1500 Windshield $284.32 05/31/16 Gulfport, MS 39507
    1998 Dodge Ram 1500 Quarter glass drivers side movable $264.94 05/30/16 Wytheville, VA 24382
    2001 Dodge Ram 1500 Windshield $279.07 05/29/16 Broaddus, TX 75929
    1997 Dodge Ram 1500 Windshield $284.44 05/26/16 Wilson, KS 67490
    1998 Dodge Ram 1500 Windshield $280.24 05/24/16 Welling, OK 74471
    2008 Dodge Ram 1500 Windshield with Logo $270.24 05/21/16 Saint Simons Island, GA 31522
    1997 Dodge Ram 1500 Windshield $274.99 05/19/16 Murphy, NC 28906
    2004 Dodge Ram 1500 Windshield $276.55 05/18/16 Baton Rouge, LA 70805
    1995 Dodge Ram 1500 Windshield $280.24 05/17/16 Kings Mountain, NC 28086
    2008 Dodge Ram 1500 Windshield with rain sensor and heated wiper park area $275.49 05/07/16 Scurry, TX 75158
    1999 Dodge Ram 1500 Windshield $285.48 05/02/16 Youngsville, LA 70592
    2007 Dodge Ram 1500 Truck back glass-movable-power-privacy tint $553.42 04/28/16 Basile, LA 70515
    2004 Dodge Ram 1500 Windshield $273.60 04/25/16 Ely, NV 89301
    2005 Dodge Ram 1500 Back glass-3 piece slider-privacy tinted $250.00 04/25/16 La Mirada, CA 90638
    2001 Dodge Ram 1500 Windshield $279.07 04/23/16 Sherman, TX 75092
    2003 Dodge Ram 1500 Windshield $270.23 04/20/16 Coalgate, OK 74538
    1995 Dodge Ram 1500 Back glass-drivers side $359.54 04/19/16 Clinton, MO 64735
    1996 Dodge Ram 1500 Windshield $280.23 04/17/16 Chase, MI 49623
    1995 Dodge Ram 1500 Back glass $358.44 04/17/16 Kingsport, TN 37664
    2009 Dodge Ram 1500 Windshield $280.50 04/17/16 Mc Camey, TX 79752
    2002 Dodge Ram 1500 Windshield $273.38 04/16/16 Wylie, TX 75098
    2008 Dodge Ram 1500 Windshield $270.24 04/16/16 Ashland, OH 44805
    2005 Dodge Ram 1500 Truck back glass-movable-manual-privacy tint $531.97 04/15/16 Millbrae, CA 94030
    2003 Dodge Ram 1500 Windshield $270.23 04/13/16 Wylie, TX 75098
    2003 Dodge Ram 1500 Windshield $270.24 04/12/16 Wylie, TX 75098
    2007 Dodge Ram 1500 Windshield $265.62 04/11/16 Greeneville, TN 37743
    1995 Dodge Ram 1500 Windshield $175.41 04/10/16 Boise, ID 83705
    1996 Dodge Ram 1500 Windshield $150.00 04/09/16 Escondido, CA 92027
    1998 Dodge Ram 1500 Windshield $274.98 04/08/16 Jefferson, ME 04348
    1997 Dodge Ram 1500 Windshield $280.22 04/07/16 Petersburg, WV 26847
    2000 Dodge Ram 1500 Windshield $279.07 04/06/16 Trenton, OH 45067
    2005 Dodge Ram 1500 Back glass-3 piece slider-privacy tinted $325.05 04/05/16 King George, VA 22485
    1997 Dodge Ram 1500 Windshield $274.97 04/05/16 Ada, OK 74820
    2007 Dodge Ram 1500 Windshield $229.00 04/05/16 Island Lake, IL 60042
    2005 Dodge Ram 1500 Back glass-non heated-privacy tint-no defrost $314.28 04/03/16 Terrell, TX 75160
    2004 Dodge Ram 1500 Windshield $264.99 04/02/16 Stedman, NC 28391
    2008 Dodge Ram 1500 Windshield with rain sensor $264.99 04/02/16 Minot, ND 58701
    1999 Dodge Ram 1500 Windshield $274.98 04/01/16 Wendell, MA 01379
    2008 Dodge Ram 1500 Windshield $199.00 03/29/16 Sacramento, CA 95827
    1998 Dodge Ram 1500 Windshield $183.02 03/28/16 Denver, CO 80233
    1999 Dodge Ram 1500 Windshield $274.98 03/28/16 Panama City, FL 32404
    2001 Dodge Ram 1500 Windshield with Night Vision $279.07 03/26/16 Stilwell, OK 74960
    Leave Comment